Weather History for KYKM - March, 2013

Change the Weather History Date:

Friday, March 1, 2013

  Actual Average Record
Temperature  
Mean Temperature 53 °F 39 °F  
Max Temperature 68 °F 51 °F 68 °F (2013)
Min Temperature 37 °F 28 °F 10 °F (1993)
Degree Days  
Heating Degree Days 12 26  
Month to date heating degree days 12 26  
Since 1 July heating degree days 3975 4553  
Cooling Degree Days 0 0  
Month to date cooling degree days 0 0  
Year to date cooling degree days 0 0  
Growing Degree Days 2 (Base 50)    
Moisture  
Dew Point 39 °F    
Average Humidity 66    
Maximum Humidity 92    
Minimum Humidity 40    
Precipitation  
Precipitation 0.00 in 0.03 in 0.33 in (1972)
Month to date precipitation 0.00 0.03  
Year to date precipitation 0.13 1.95  
Snow  
Snow 0.00 in 0.10 in 3.80 in (1972)
Month to date snowfall 0.0 0.1  
Year to date snowfall 1.1 8.0  
Since 1 July snowfall 15.3 21.0  
Snow Depth 0.00 in    
Sea Level Pressure  
Sea Level Pressure 30.32 in    
Wind  
Wind Speed 4 mph (West)    
Max Wind Speed 21 mph    
Max Gust Speed 25 mph    
Visibility 10 miles    
Events      
T = Trace of Precipitation, MM = Missing Value Source: NWS Daily Summary

Daily Weather History Graph

Daily Weather History Graph

Search for Another Location

Airport or City:

Trip Planner

Search our weather history database for the weather conditions in past years. The results will help you decide how hot, cold, wet, or windy it might be!

Date:

Astronomy

Mar. 01, 2013 Rise Set
Actual Time 6:40 AM PST 5:48 PM PST
Civil Twilight 6:10 AM PST 6:18 PM PST
Nautical Twilight 5:35 AM PST 6:53 PM PST
Astronomical Twilight 5:00 AM PST 7:29 PM PST
Moon 10:48 PM PST (3/1) 8:13 AM PST (3/1)
Length of Visible Light 12h 08m
Length of Day
11h 07m
Waning Gibbous, 82% of the Moon is Illuminated
Mar 1
Waning Gibbous
Mar 4
Last Quarter
Mar 11
New
Mar 19
First Quarter
Mar 27
Full

Hourly Weather History & Observations

Time (PST) Temp. Windchill Dew Point Humidity Pressure Visibility Wind Dir Wind Speed Gust Speed Precip Events Conditions
12:53 AM 41.0 °F 39.0 °F 37.0 °F 86% 30.36 in 10.0 mi WNW 3.5 mph - N/A   Partly Cloudy
1:53 AM 39.9 °F 37.8 °F 36.0 °F 86% 30.38 in 10.0 mi West 3.5 mph - N/A   Partly Cloudy
2:53 AM 37.0 °F 33.3 °F 34.0 °F 89% 30.36 in 7.0 mi West 4.6 mph - N/A   Mostly Cloudy
3:53 AM 39.9 °F - 37.0 °F 89% 30.36 in 9.0 mi Calm Calm - N/A   Overcast
4:53 AM 39.9 °F 37.8 °F 36.0 °F 86% 30.35 in 9.0 mi WNW 3.5 mph - N/A   Overcast
5:53 AM 39.0 °F - 35.1 °F 86% 30.35 in 9.0 mi Calm Calm - N/A   Mostly Cloudy
6:53 AM 37.0 °F 32.4 °F 34.0 °F 89% 30.36 in 6.0 mi West 5.8 mph - N/A   Mostly Cloudy
7:53 AM 42.1 °F - 37.9 °F 85% 30.35 in 6.0 mi Calm Calm - N/A   Mostly Cloudy
8:53 AM 45.0 °F 42.6 °F 39.9 °F 82% 30.35 in 10.0 mi NW 4.6 mph - N/A   Scattered Clouds
9:53 AM 51.1 °F - 41.0 °F 68% 30.35 in 10.0 mi NE 3.5 mph - N/A   Scattered Clouds
10:53 AM 53.1 °F - 42.1 °F 66% 30.34 in 10.0 mi ESE 3.5 mph - N/A   Scattered Clouds
11:53 AM 54.0 °F - 43.0 °F 66% 30.34 in 10.0 mi Calm Calm - N/A   Scattered Clouds
12:53 PM 60.1 °F - 45.0 °F 57% 30.32 in 10.0 mi Calm Calm - N/A   Clear
1:53 PM 63.0 °F - 41.0 °F 45% 30.30 in 10.0 mi East 4.6 mph - N/A   Clear
2:53 PM 64.0 °F - 42.1 °F 45% 30.30 in 10.0 mi Calm Calm - N/A   Partly Cloudy
3:53 PM 66.9 °F - 41.0 °F 39% 30.28 in 10.0 mi Variable 5.8 mph - N/A   Partly Cloudy
4:53 PM 62.1 °F - 42.1 °F 48% 30.29 in 10.0 mi SSW 15.0 mph 23.0 mph N/A   Partly Cloudy
5:53 PM 59.0 °F - 41.0 °F 51% 30.29 in 10.0 mi SSW 9.2 mph 18.4 mph N/A   Clear
6:53 PM 55.0 °F - 39.9 °F 57% 30.30 in 10.0 mi NNW 3.5 mph - N/A   Clear
7:53 PM 46.9 °F - 37.9 °F 71% 30.30 in 10.0 mi Calm Calm - N/A   Clear
8:53 PM 46.0 °F - 37.9 °F 73% 30.30 in 10.0 mi Calm Calm - N/A   Clear
9:53 PM 42.1 °F 40.2 °F 36.0 °F 79% 30.29 in 10.0 mi WSW 3.5 mph - N/A   Clear
10:53 PM 39.9 °F 37.8 °F 35.1 °F 83% 30.30 in 10.0 mi West 3.5 mph - N/A   Clear
11:53 PM 39.0 °F 34.0 °F 34.0 °F 82% 30.29 in 10.0 mi WNW 6.9 mph - N/A   Clear